Weather History for Gwinn, MI

Change the Weather History Date:

Tuesday, March 18, 2014

  Actual Average (KESC) Record (KESC)
Temperature  
Mean Temperature 26 °F -  
Max Temperature 32 °F 36 °F 60 °F (2012)
Min Temperature 19 °F 18 °F -4 °F (1959)
Degree Days  
Heating Degree Days 40    
Moisture  
Dew Point 20 °F    
Average Humidity 84    
Maximum Humidity 93    
Minimum Humidity 69    
Precipitation  
Precipitation 0.00 in - - ()
Sea Level Pressure  
Sea Level Pressure 29.88 in    
Wind  
Wind Speed 8 mph (SSE)    
Max Wind Speed 12 mph    
Max Gust Speed -    
Visibility 8 miles    
Events Snow    
Averages and records for this station are not official NWS values.
T = Trace of Precipitation, MM = Missing Value Source: NWS Daily Summary

Daily Weather History Graph

Daily Weather History Graph

Search for Another Location

Airport:

Trip Planner

Search our weather history database for the weather conditions in past years. The results will help you decide how hot, cold, wet, or windy it might be!

Date:

Astronomy

Mar. 18, 2014 Rise Set
Actual Time 7:56 AM EDT 7:59 PM EDT
Civil Twilight 7:26 AM EDT 8:29 PM EDT
Nautical Twilight 6:51 AM EDT 9:04 PM EDT
Astronomical Twilight 6:15 AM EDT 9:40 PM EDT
Moon 10:25 PM EDT (3/18) 8:38 AM EDT (3/18)
Length of Visible Light 13h 02m
Length of Day
12h 03m
Waning Gibbous, 96% of the Moon is Illuminated
Mar 18
Waning Gibbous
Mar 23
Last Quarter
Mar 30
New
Apr 7
First Quarter
Apr 15
Full

Hourly Weather History & Observations

Time (EDT) Temp. Windchill Dew Point Humidity Pressure Visibility Wind Dir Wind Speed Gust Speed Precip Events Conditions
12:16 AM 19.4 °F 9.5 °F 17.2 °F 91% 29.84 in 10.0 mi South 8.1 mph - N/A   Overcast
12:37 AM 19.6 °F 8.9 °F 17.6 °F 92% 29.84 in 10.0 mi South 9.2 mph - N/A   Overcast
12:56 AM 19.8 °F 8.3 °F 17.6 °F 91% 29.84 in 10.0 mi South 10.4 mph - N/A   Overcast
1:16 AM 19.9 °F 9.3 °F 17.8 °F 91% 29.84 in 10.0 mi SSE 9.2 mph - N/A   Overcast
1:36 AM 19.9 °F 9.3 °F 18.0 °F 92% 29.85 in 10.0 mi South 9.2 mph - N/A   Overcast
1:56 AM 20.1 °F 8.8 °F 18.3 °F 93% 29.85 in 10.0 mi South 10.4 mph - N/A   Overcast
2:17 AM 20.1 °F 9.5 °F 18.1 °F 92% 29.84 in 10.0 mi South 9.2 mph - N/A   Overcast
2:36 AM 20.3 °F 9.0 °F 18.1 °F 91% 29.84 in 10.0 mi South 10.4 mph - N/A   Overcast
2:56 AM 20.3 °F 9.8 °F 18.1 °F 91% 29.84 in 10.0 mi SSE 9.2 mph - N/A   Overcast
3:17 AM 20.5 °F 10.0 °F 18.0 °F 90% 29.84 in 10.0 mi South 9.2 mph - N/A   Overcast
3:36 AM 20.7 °F 10.2 °F 18.1 °F 90% 29.85 in 10.0 mi South 9.2 mph - N/A   Overcast
3:57 AM 20.8 °F 10.4 °F 18.1 °F 89% 29.85 in 10.0 mi South 9.2 mph - N/A   Overcast
4:16 AM 20.8 °F 10.4 °F 18.1 °F 89% 29.85 in 10.0 mi South 9.2 mph - N/A   Overcast
4:36 AM 20.8 °F 9.7 °F 18.0 °F 89% 29.84 in 10.0 mi South 10.4 mph - N/A   Overcast
4:57 AM 20.8 °F 11.2 °F 17.6 °F 87% 29.84 in 10.0 mi South 8.1 mph - N/A   Overcast
5:16 AM 21.0 °F 10.6 °F 17.8 °F 87% 29.84 in 10.0 mi South 9.2 mph - N/A   Overcast
5:37 AM 21.2 °F 10.1 °F 17.6 °F 86% 29.84 in 10.0 mi South 10.4 mph - N/A   Overcast
5:56 AM 21.2 °F 10.9 °F 17.6 °F 86% 29.85 in 10.0 mi South 9.2 mph - N/A   Overcast
6:50 AM 21.2 °F 9.5 °F 17.6 °F 86% 29.85 in 10.0 mi SSE 11.5 mph - N/A   Overcast
7:45 AM 21.2 °F 12.6 °F 17.6 °F 86% 29.88 in 1.5 mi SSE 6.9 mph - N/A Snow Light Snow
8:50 AM 21.2 °F 11.7 °F 17.6 °F 86% 29.88 in 1.2 mi SSE 8.1 mph - N/A Snow Light Snow
9:45 AM - - - N/A% 29.89 in 0.8 mi SE 8.1 mph - N/A   Unknown
9:50 AM 21.2 °F 12.6 °F 19.4 °F 93% 29.89 in 0.8 mi SSE 6.9 mph - N/A Snow Light Snow
10:50 AM 21.2 °F 10.9 °F 19.4 °F 93% 29.91 in 1.0 mi SSE 9.2 mph - N/A Snow Light Snow
11:50 AM 23.0 °F 14.7 °F 19.4 °F 86% 29.92 in 0.8 mi SSE 6.9 mph - N/A Snow Snow
12:50 PM 23.0 °F 15.8 °F 19.4 °F 86% 29.93 in 1.5 mi SSE 5.8 mph - N/A Snow Light Snow
1:28 PM 24.8 °F 16.9 °F 19.4 °F 80% 29.93 in 10.0 mi SE 6.9 mph - N/A   Overcast
1:50 PM 26.6 °F 20.0 °F 21.2 °F 80% 29.93 in 10.0 mi SE 5.8 mph - N/A   Overcast
2:50 PM 30.2 °F 21.9 °F 23.0 °F 75% 29.91 in 10.0 mi SE 9.2 mph - N/A   Overcast
3:50 PM 30.2 °F 21.9 °F 23.0 °F 75% 29.91 in 10.0 mi SSE 9.2 mph - N/A   Overcast
4:50 PM 32.0 °F 24.8 °F 23.0 °F 69% 29.90 in 10.0 mi ESE 8.1 mph - N/A   Mostly Cloudy
5:50 PM 32.0 °F 25.6 °F 23.0 °F 69% 29.91 in 10.0 mi ESE 6.9 mph - N/A   Overcast
6:50 PM 32.0 °F 25.6 °F 23.0 °F 69% 29.90 in 10.0 mi ESE 6.9 mph - N/A   Overcast
7:50 PM 30.2 °F 26.7 °F 23.0 °F 75% 29.92 in 10.0 mi East 3.5 mph - N/A   Overcast
8:50 PM 30.2 °F 24.3 °F 21.2 °F 69% 29.90 in 10.0 mi East 5.8 mph - N/A   Overcast
9:45 PM 30.2 °F 23.4 °F 23.0 °F 75% 29.91 in 10.0 mi East 6.9 mph - N/A   Overcast
10:16 PM 29.3 °F 24.3 °F 23.0 °F 77% 29.90 in 10.0 mi ENE 4.6 mph - N/A   Overcast
10:36 PM 29.3 °F - 23.0 °F 77% 29.91 in 10.0 mi Calm Calm - N/A   Overcast
10:57 PM 28.9 °F 25.2 °F 23.0 °F 78% 29.92 in 10.0 mi ESE 3.5 mph - N/A   Overcast
11:16 PM 28.8 °F 25.0 °F 23.4 °F 80% 29.91 in 7.0 mi ESE 3.5 mph - N/A Snow Light Snow
11:36 PM 28.4 °F 24.6 °F 24.8 °F 86% 29.90 in 7.0 mi East 3.5 mph - N/A Snow Light Snow
11:57 PM 28.8 °F 25.0 °F 24.4 °F 84% 29.88 in 10.0 mi East 3.5 mph - N/A   Overcast